PWSweather.com
Personal Weather Stations
Station Observations

SkegnessGB

Lat: 53.147585, Lon: 0.345774

Elevation: 18

Station Type: Fine Offset WH3080

http://www.skegnessweather.info/

Latest ConditionsUpdated 6:30:00 AM GMT Saturday, Jan 18, 2020
Currently Today's Max Today's Min Today's Average
Temperature 34.3°F1.3°C 38.5°F3.6°C 34.3°F1.3°C 36.7°F2.6°C
Dew Point 29.7°F-1.3°C 33.5°F0.8°C 29.7°F-1.3°C 32.0°F0.0°C
Winds 5.7 mph SSW9.2 kmh SSW 9.1 mph -14.6 kmh - - 6.0 mph 9.7 kmh
Wind Gusts 6.6 mph10.6 kmh 11.8 mph19.0 kmh - -
Humidity 83% 83% 82% 83%
Pressure 30.11 in1019.6 mb 30.11 in1019.6 mb 29.98 in1015.2 mb -
Hour Temp Dew Point Humidity Winds Wind Gusts Pressure Precip Precip Rate Daily Precip Total
06:30 AM 34.3°F1.3°C 29.7°F-1.3°C 83% 5.7 mph SSW9.2 kmh SSW 6.6 mph10.6 kmh 30.11 in1019.6 mb 0.00 in0.0 mm 0.00 in0.0 mm 0.00 in0.0 mm
06:20 AM 34.3°F1.3°C 29.7°F-1.3°C 83% 5.1 mph SSW8.2 kmh SSW 4.9 mph7.9 kmh 30.11 in1019.6 mb 0.00 in0.0 mm 0.00 in0.0 mm 0.00 in0.0 mm
06:10 AM 34.5°F1.4°C 29.9°F-1.2°C 83% 5.1 mph SW8.2 kmh SW 8.4 mph13.5 kmh 30.10 in1019.3 mb 0.00 in0.0 mm 0.00 in0.0 mm 0.00 in0.0 mm
06:00 AM 34.5°F1.4°C 29.9°F-1.2°C 83% 5.8 mph SW9.3 kmh SW 6.6 mph10.6 kmh 30.10 in1019.3 mb 0.00 in0.0 mm 0.00 in0.0 mm 0.00 in0.0 mm
05:50 AM 34.7°F1.5°C 30.1°F-1.1°C 83% 5.9 mph SW9.5 kmh SW 5.9 mph9.5 kmh 30.09 in1019.0 mb 0.00 in0.0 mm 0.00 in0.0 mm 0.00 in0.0 mm
05:40 AM 34.9°F1.6°C 30.2°F-1.0°C 83% 4.5 mph SW7.2 kmh SW 4.9 mph7.9 kmh 30.09 in1019.0 mb 0.00 in0.0 mm 0.00 in0.0 mm 0.00 in0.0 mm
05:30 AM 35.1°F1.7°C 30.4°F-0.9°C 83% 5.2 mph SSW8.4 kmh SSW 4.9 mph7.9 kmh 30.08 in1018.6 mb 0.00 in0.0 mm 0.00 in0.0 mm 0.00 in0.0 mm
05:20 AM 35.4°F1.9°C 30.8°F-0.7°C 83% 5.5 mph WSW8.9 kmh WSW 4.9 mph7.9 kmh 30.09 in1019.0 mb 0.00 in0.0 mm 0.00 in0.0 mm 0.00 in0.0 mm
05:10 AM 35.6°F2.0°C 30.9°F-0.6°C 83% 5.4 mph WSW8.7 kmh WSW 4.2 mph6.8 kmh 30.08 in1018.6 mb 0.00 in0.0 mm 0.00 in0.0 mm 0.00 in0.0 mm
05:00 AM 36.0°F2.2°C 31.3°F-0.4°C 83% 5.7 mph SW9.2 kmh SW 6.6 mph10.6 kmh 30.07 in1018.3 mb 0.00 in0.0 mm 0.00 in0.0 mm 0.00 in0.0 mm
04:50 AM 36.1°F2.3°C 31.5°F-0.3°C 83% 5.6 mph S9.0 kmh S 7.6 mph12.2 kmh 30.07 in1018.3 mb 0.00 in0.0 mm 0.00 in0.0 mm 0.00 in0.0 mm
04:40 AM 36.3°F2.4°C 31.7°F-0.2°C 83% 6.0 mph SW9.7 kmh SW 5.9 mph9.5 kmh 30.06 in1017.9 mb 0.00 in0.0 mm 0.00 in0.0 mm 0.00 in0.0 mm
04:30 AM 36.3°F2.4°C 31.7°F-0.2°C 83% 6.6 mph SW10.6 kmh SW 9.1 mph14.6 kmh 30.06 in1017.9 mb 0.00 in0.0 mm 0.00 in0.0 mm 0.00 in0.0 mm
04:20 AM 36.3°F2.4°C 31.7°F-0.2°C 83% 7.1 mph WSW11.4 kmh WSW 9.1 mph14.6 kmh 30.06 in1017.9 mb 0.00 in0.0 mm 0.00 in0.0 mm 0.00 in0.0 mm
04:10 AM 36.1°F2.3°C 31.5°F-0.3°C 83% 8.2 mph SW13.2 kmh SW 9.1 mph14.6 kmh 30.06 in1017.9 mb 0.00 in0.0 mm 0.00 in0.0 mm 0.00 in0.0 mm
04:00 AM 36.1°F2.3°C 31.5°F-0.3°C 83% 6.2 mph WSW10.0 kmh WSW 8.4 mph13.5 kmh 30.05 in1017.6 mb 0.00 in0.0 mm 0.00 in0.0 mm 0.00 in0.0 mm
03:50 AM 36.1°F2.3°C 31.5°F-0.3°C 83% 5.4 mph SW8.7 kmh SW 6.6 mph10.6 kmh 30.05 in1017.6 mb 0.00 in0.0 mm 0.00 in0.0 mm 0.00 in0.0 mm
03:40 AM 36.3°F2.4°C 31.7°F-0.2°C 83% 4.3 mph W6.9 kmh W 4.9 mph7.9 kmh 30.05 in1017.6 mb 0.00 in0.0 mm 0.00 in0.0 mm 0.00 in0.0 mm
03:30 AM 36.7°F2.6°C 32.0°F0.0°C 83% 7.0 mph WSW11.3 kmh WSW 7.6 mph12.2 kmh 30.05 in1017.6 mb 0.00 in0.0 mm 0.00 in0.0 mm 0.00 in0.0 mm
03:20 AM 36.9°F2.7°C 32.2°F0.1°C 83% 7.3 mph WSW11.7 kmh WSW 9.1 mph14.6 kmh 30.05 in1017.6 mb 0.00 in0.0 mm 0.00 in0.0 mm 0.00 in0.0 mm
03:10 AM 36.9°F2.7°C 32.2°F0.1°C 83% 7.9 mph WSW12.7 kmh WSW 9.1 mph14.6 kmh 30.04 in1017.3 mb 0.00 in0.0 mm 0.00 in0.0 mm 0.00 in0.0 mm
03:00 AM 36.9°F2.7°C 32.2°F0.1°C 83% 7.6 mph W12.2 kmh W 10.1 mph16.3 kmh 30.04 in1017.3 mb 0.00 in0.0 mm 0.00 in0.0 mm 0.00 in0.0 mm
02:50 AM 36.7°F2.6°C 32.0°F0.0°C 83% 4.8 mph SSW7.7 kmh SSW 6.6 mph10.6 kmh 30.04 in1017.3 mb 0.00 in0.0 mm 0.00 in0.0 mm 0.00 in0.0 mm
02:40 AM 37.0°F2.8°C 32.4°F0.2°C 83% 4.7 mph NW7.6 kmh NW 6.6 mph10.6 kmh 30.04 in1017.3 mb 0.00 in0.0 mm 0.00 in0.0 mm 0.00 in0.0 mm
02:30 AM 37.4°F3.0°C 32.7°F0.4°C 83% 5.7 mph SW9.2 kmh SW 6.6 mph10.6 kmh 30.03 in1016.9 mb 0.00 in0.0 mm 0.00 in0.0 mm 0.00 in0.0 mm
02:20 AM 37.4°F3.0°C 32.7°F0.4°C 83% 4.5 mph SW7.2 kmh SW 5.9 mph9.5 kmh 30.04 in1017.3 mb 0.00 in0.0 mm 0.00 in0.0 mm 0.00 in0.0 mm
02:10 AM 37.6°F3.1°C 32.9°F0.5°C 83% 6.5 mph SW10.5 kmh SW 6.6 mph10.6 kmh 30.03 in1016.9 mb 0.00 in0.0 mm 0.00 in0.0 mm 0.00 in0.0 mm
02:00 AM 37.8°F3.2°C 33.1°F0.6°C 83% 7.7 mph S12.4 kmh S 10.1 mph16.3 kmh 30.03 in1016.9 mb 0.00 in0.0 mm 0.00 in0.0 mm 0.00 in0.0 mm
01:50 AM 37.9°F3.3°C 33.2°F0.7°C 83% 7.6 mph SSW12.2 kmh SSW 8.4 mph13.5 kmh 30.02 in1016.6 mb 0.00 in0.0 mm 0.00 in0.0 mm 0.00 in0.0 mm
01:40 AM 37.9°F3.3°C 33.2°F0.7°C 83% 7.7 mph W12.4 kmh W 9.1 mph14.6 kmh 30.02 in1016.6 mb 0.00 in0.0 mm 0.00 in0.0 mm 0.00 in0.0 mm
01:30 AM 37.9°F3.3°C 32.9°F0.5°C 82% 7.2 mph WSW11.6 kmh WSW 9.1 mph14.6 kmh 30.01 in1016.3 mb 0.00 in0.0 mm 0.00 in0.0 mm 0.00 in0.0 mm
01:20 AM 38.1°F3.4°C 33.1°F0.6°C 82% 7.6 mph SW12.2 kmh SW 8.4 mph13.5 kmh 30.01 in1016.3 mb 0.00 in0.0 mm 0.00 in0.0 mm 0.00 in0.0 mm
01:10 AM 38.3°F3.5°C 33.3°F0.7°C 82% 9.1 mph SW14.6 kmh SW 8.4 mph13.5 kmh 30.01 in1016.3 mb 0.00 in0.0 mm 0.00 in0.0 mm 0.00 in0.0 mm
01:00 AM 38.3°F3.5°C 33.3°F0.7°C 82% 6.8 mph SSW10.9 kmh SSW 11.8 mph19.0 kmh 30.01 in1016.3 mb 0.00 in0.0 mm 0.00 in0.0 mm 0.00 in0.0 mm
12:50 AM 38.3°F3.5°C 33.3°F0.7°C 82% 4.8 mph SW7.7 kmh SW 7.6 mph12.2 kmh 30.01 in1016.3 mb 0.00 in0.0 mm 0.00 in0.0 mm 0.00 in0.0 mm
12:40 AM 38.5°F3.6°C 33.5°F0.8°C 82% 4.8 mph S7.7 kmh S 6.6 mph10.6 kmh 30.00 in1015.9 mb 0.00 in0.0 mm 0.00 in0.0 mm 0.00 in0.0 mm
12:30 AM 38.3°F3.5°C 33.3°F0.7°C 82% 4.6 mph SSW7.4 kmh SSW 6.6 mph10.6 kmh 29.99 in1015.6 mb 0.00 in0.0 mm 0.00 in0.0 mm 0.00 in0.0 mm
12:20 AM 38.3°F3.5°C 33.3°F0.7°C 82% 4.9 mph WSW7.9 kmh WSW 5.9 mph9.5 kmh 29.99 in1015.6 mb 0.00 in0.0 mm 0.00 in0.0 mm 0.00 in0.0 mm
12:10 AM 38.3°F3.5°C 33.3°F0.7°C 82% 4.9 mph SW7.9 kmh SW 5.9 mph9.5 kmh 29.98 in1015.2 mb 0.00 in0.0 mm 0.00 in0.0 mm 0.00 in0.0 mm
12:00 AM 38.3°F3.5°C 33.3°F0.7°C 82% 4.9 mph SW7.9 kmh SW 6.6 mph10.6 kmh 29.98 in1015.2 mb 0.00 in0.0 mm 0.00 in0.0 mm 0.00 in0.0 mm